Vorticity
8 8 8 7 7 7 7 7 7 9 6 8 10 9 14 10 -5 0 13 7 3 3 10 8 5 7 2 5 4 -1 2 2 2 6 8 6 4 2 4 6 3 3 2 3 4 3 4 3 3 3 2 2 2 3 3 3 3 4 4 4 4 3 5 6 6 7 4 4 3 -0 -2 -2 3 6 5 5 6 7 7 7 6 6 5 5 6 6 7 7 7 9 8 7 8 9 7 4 4
8 8 8 7 8 6 8 7 7 9 8 8 9 12 13 7 4 9 6 -0 3 2 6 11 10 11 6 7 5 2 5 3 3 3 -3 -6 -2 -1 -4 -5 -3 1 1 3 3 3 3 3 3 3 3 2 3 3 4 5 6 6 5 4 4 3 3 5 6 5 4 3 -0 -1 1 1 4 7 6 4 5 6 6 7 6 6 6 6 6 6 7 7 8 8 9 8 8 9 7 5 4
8 8 8 7 8 7 8 7 7 10 10 11 12 17 12 3 7 7 2 2 8 6 3 2 2 6 8 7 5 9 11 9 6 2 -1 1 3 1 1 1 2 4 4 5 4 4 5 4 4 4 3 2 3 5 6 7 7 6 5 4 3 4 5 5 5 5 5 3 1 2 3 4 7 6 5 4 5 5 6 7 6 6 6 6 6 6 7 7 8 8 9 8 7 8 8 6 5
9 8 8 8 9 8 9 8 7 8 8 13 18 22 13 6 9 6 5 6 6 8 8 5 5 8 11 13 12 13 14 11 8 6 6 7 6 4 4 5 5 5 5 6 5 6 5 5 5 4 3 3 5 5 6 7 6 4 3 3 4 6 7 6 6 6 5 5 5 5 6 7 7 5 4 4 4 5 6 7 5 6 6 6 6 6 7 7 8 8 8 8 7 8 8 6 5
9 8 8 8 8 9 9 10 9 8 12 12 7 15 11 2 6 7 7 9 10 8 7 8 8 7 7 11 12 8 5 4 4 6 9 7 6 5 4 5 5 5 6 6 5 6 6 6 5 4 3 5 6 5 7 6 4 4 3 4 8 10 9 8 7 6 4 5 9 8 7 8 6 4 4 3 4 5 5 6 6 5 6 6 7 7 7 7 7 7 8 7 7 7 8 6 5
8 8 9 9 10 9 8 9 10 8 13 10 -5 3 8 -4 -0 6 7 8 8 8 8 7 5 5 5 8 9 6 2 0 -0 1 3 2 3 4 4 6 6 5 7 5 5 6 5 6 5 3 4 6 6 6 5 4 4 4 4 7 10 11 10 9 8 6 4 6 11 10 7 5 4 5 4 4 5 5 6 8 6 6 7 7 7 7 7 7 7 7 7 7 7 7 7 7 5
7 9 9 9 10 9 8 8 10 10 15 18 0 -9 -4 -0 8 11 10 9 7 8 8 6 7 9 8 6 5 5 7 6 5 5 3 1 3 4 3 5 6 6 6 5 6 6 6 6 5 5 6 6 5 4 4 5 6 4 5 8 9 11 11 11 10 8 5 8 10 7 5 4 3 4 4 6 5 3 5 9 8 6 6 7 7 7 7 7 7 7 7 7 7 7 7 7 6
8 9 9 8 10 9 10 9 9 11 15 18 6 -9 -7 5 14 13 10 8 10 10 8 8 8 8 6 5 5 6 8 6 7 7 5 5 6 5 5 5 5 6 6 7 8 7 7 5 7 7 5 5 4 5 6 6 4 3 6 8 9 9 9 11 12 9 8 10 8 6 5 4 3 3 4 6 5 5 6 7 7 7 7 7 7 7 7 7 7 7 7 8 8 8 6 6 7
9 8 9 9 9 9 9 10 11 11 6 5 4 -1 1 5 8 8 8 6 7 8 10 9 6 8 7 7 9 8 6 5 5 4 6 7 5 5 5 5 5 6 7 11 10 8 7 5 8 7 5 6 6 7 6 4 5 7 8 10 11 7 7 13 14 11 10 8 6 5 5 4 4 3 4 4 4 6 9 9 8 8 8 8 7 7 7 7 7 6 8 8 7 7 7 7 6
9 8 9 8 8 11 10 10 12 10 3 1 5 5 5 9 9 8 8 7 7 8 10 8 8 10 9 9 8 5 5 7 6 5 7 6 5 6 5 5 6 6 7 11 9 8 7 7 7 5 8 10 6 6 3 4 9 10 10 11 12 8 7 12 12 9 8 6 4 4 5 5 4 4 3 2 4 3 4 7 5 7 7 6 6 7 7 7 7 6 7 7 7 7 8 8 7
9 8 8 8 9 9 11 13 15 19 10 0 5 8 7 11 11 10 9 8 8 7 8 9 10 8 7 9 5 5 5 4 8 7 7 6 6 6 5 5 6 7 6 8 11 9 6 5 6 6 9 7 4 5 6 9 10 11 14 14 13 11 9 10 10 6 4 4 4 3 3 4 4 7 7 6 6 3 4 4 1 3 5 5 7 7 7 7 7 7 7 7 7 6 7 8 8
9 9 10 9 10 10 12 13 14 19 10 4 13 11 9 15 12 10 9 8 7 7 10 8 9 8 7 8 7 10 9 4 5 4 4 4 5 5 5 6 5 9 9 9 9 8 11 14 12 10 8 5 6 10 10 8 7 14 18 14 12 10 8 8 7 4 4 5 5 5 2 3 4 4 4 5 5 4 6 5 1 3 4 7 8 7 7 6 7 7 7 7 7 7 7 8 8
9 8 10 8 9 11 9 6 3 -3 -7 5 14 8 13 18 11 9 9 8 9 9 11 9 8 8 8 13 14 10 6 5 5 4 5 5 5 4 5 8 6 8 11 8 5 5 9 12 9 5 5 4 6 8 5 5 12 20 18 12 11 8 7 8 8 4 5 5 2 5 5 4 3 0 -1 2 4 4 4 3 4 6 7 7 6 6 6 6 7 7 7 7 6 7 7 8 7
8 9 8 9 11 9 5 3 4 0 7 15 6 4 11 9 8 10 9 10 10 5 11 17 11 7 9 10 8 6 3 4 6 5 5 5 5 6 6 9 8 8 7 4 7 8 1 1 3 -1 -2 0 5 6 6 14 21 19 12 11 10 9 9 7 7 4 3 6 2 5 11 9 7 6 4 4 8 6 2 3 5 7 7 5 5 6 6 7 7 7 7 7 6 6 7 8 6
9 8 7 9 10 9 10 8 3 5 15 11 4 15 14 6 10 10 8 10 9 6 9 15 10 7 9 4 2 4 3 4 7 7 8 8 5 7 7 6 8 8 7 5 5 4 2 6 7 3 3 9 14 10 15 21 21 20 13 10 9 10 11 7 8 6 1 6 6 9 14 14 11 10 10 8 9 6 1 2 4 5 5 4 4 5 6 7 7 6 7 7 7 6 6 7 6
8 8 9 10 9 11 14 14 7 3 7 -0 2 21 14 7 12 9 11 10 10 14 10 9 9 5 4 7 12 8 3 5 6 6 7 6 6 9 9 7 8 8 7 6 4 4 4 5 5 7 10 16 17 13 19 17 15 23 14 8 13 11 9 8 11 9 7 7 3 3 8 16 18 15 14 11 7 4 2 4 4 4 3 3 3 4 6 6 7 8 7 7 7 7 7 7 7
8 9 11 11 12 12 8 12 14 7 6 1 4 16 9 5 13 11 12 10 9 17 13 7 5 2 4 9 11 3 2 4 0 1 4 5 7 9 9 7 7 6 4 3 5 8 6 6 7 10 14 15 12 13 18 13 15 19 9 9 18 13 9 10 12 10 9 8 2 2 11 22 24 16 14 10 4 3 4 6 5 4 4 5 5 6 7 7 7 8 7 7 7 8 8 7 7
9 10 11 12 14 14 7 6 13 10 -3 -4 14 21 6 3 14 11 9 13 10 11 8 2 1 3 7 9 7 5 4 3 1 4 6 7 8 8 6 5 7 5 4 3 3 8 9 11 8 8 17 12 9 14 12 12 20 16 7 10 14 12 10 7 8 7 6 11 13 13 16 19 17 13 11 6 4 4 5 6 5 5 6 7 7 7 7 8 9 9 9 8 8 8 8 8 7
10 10 11 11 11 12 6 -8 -7 1 -10 -6 18 19 6 5 12 8 7 14 15 15 10 10 12 6 6 7 3 3 2 2 6 8 6 7 5 5 5 4 7 3 5 8 5 7 7 8 6 5 11 7 11 16 7 10 15 9 8 10 11 14 16 13 11 13 18 22 21 13 8 10 10 8 5 4 4 6 7 6 7 7 7 8 9 10 10 10 10 9 9 9 9 8 8 9 9
9 8 9 14 12 2 -1 -1 -1 2 -1 4 15 12 9 9 10 8 4 7 12 12 7 11 10 9 15 6 -2 4 6 6 7 6 3 4 5 4 3 5 8 4 7 9 4 5 5 9 11 9 12 7 9 10 7 12 9 8 12 9 10 12 15 20 17 15 17 19 20 11 5 13 13 5 3 5 5 6 6 6 9 8 8 10 9 10 11 10 12 12 10 10 9 8 8 9 10
9 6 10 14 8 -4 -4 7 10 7 6 9 11 10 12 11 12 12 5 3 7 4 3 8 3 14 22 -3 -3 13 11 9 6 3 2 3 6 5 2 4 6 5 7 7 3 5 5 10 11 9 12 7 7 11 12 11 4 10 13 3 7 7 5 11 14 16 14 14 20 12 5 10 6 -0 3 6 4 6 7 8 11 11 12 12 11 12 11 10 13 13 11 11 11 10 10 8 8
7 6 11 3 -4 3 5 2 4 9 11 11 10 7 9 12 12 11 10 7 6 2 4 7 3 17 19 -6 -1 8 2 5 4 2 3 4 8 6 4 4 6 9 9 6 5 7 8 13 12 7 13 13 13 16 12 7 2 7 9 4 5 8 14 18 15 17 16 10 8 3 0 2 -4 -5 4 6 6 7 8 10 13 15 15 11 12 14 13 15 13 16 18 13 11 11 9 8 7
6 7 13 5 -0 11 8 1 7 12 9 8 8 6 8 12 10 9 10 6 2 5 7 7 7 14 9 -3 3 2 1 6 3 4 5 7 10 6 5 3 3 7 9 6 5 11 11 13 14 13 21 20 14 14 12 12 9 5 9 12 7 10 21 21 10 9 9 -1 -6 -2 0 -3 -6 -4 3 6 6 6 5 8 11 10 8 7 13 12 11 16 14 19 18 6 9 11 9 10 9
7 6 9 5 5 10 0 2 11 7 4 7 7 8 9 8 8 8 8 6 -2 2 7 4 4 5 -3 -5 3 4 5 6 4 6 6 6 8 6 5 3 2 3 7 7 5 10 10 18 28 20 15 11 6 7 4 11 16 5 5 9 5 9 13 7 3 3 -1 -6 -1 8 5 2 6 4 3 6 8 8 6 7 10 6 4 7 13 10 8 15 14 12 6 1 10 12 8 10 9
8 7 6 2 7 8 -2 5 11 4 4 7 7 9 7 3 6 7 9 11 2 -1 5 3 1 4 4 3 5 6 7 6 5 6 6 6 7 5 3 4 5 4 8 10 8 12 12 23 27 1 -4 12 12 8 7 15 19 10 8 12 9 7 2 -2 2 4 1 3 11 16 10 5 11 9 3 6 10 10 8 8 10 7 7 8 9 8 7 10 9 5 5 8 12 10 10 10 8
7 6 6 4 9 8 2 6 7 6 6 6 8 8 7 4 3 5 8 11 8 7 10 10 6 6 10 9 7 8 7 6 6 7 7 6 5 4 3 4 7 7 11 12 8 13 12 15 10 -16 -5 23 20 13 13 10 13 14 8 7 9 3 1 2 2 3 6 10 10 12 11 5 7 8 3 6 10 10 9 7 8 9 9 9 9 8 7 9 8 6 9 11 9 10 12 11 10
6 5 6 5 7 6 4 6 6 8 6 4 9 8 6 8 5 3 9 10 5 7 10 10 7 4 9 10 8 9 6 6 6 5 5 4 4 4 4 6 9 8 11 12 9 15 16 18 18 6 12 23 17 16 12 -2 2 9 -5 -4 10 7 4 7 4 3 5 9 9 7 8 7 9 10 8 8 8 8 9 7 7 9 8 9 11 8 9 11 9 10 10 9 11 13 14 12 11
7 7 6 6 9 7 3 6 8 8 6 6 9 8 3 9 13 6 10 13 5 6 9 7 5 6 8 7 8 8 5 5 3 3 4 3 4 5 6 8 10 10 12 11 8 12 14 17 26 28 23 16 15 19 10 -7 -4 9 4 6 18 13 9 8 7 10 6 6 10 7 7 11 12 11 11 10 7 8 8 6 6 8 8 11 13 9 9 10 9 11 10 12 16 15 14 12 11
8 9 8 6 8 8 6 7 7 5 9 8 6 6 2 5 11 6 5 8 6 6 7 5 5 8 10 7 8 8 5 4 3 4 4 3 5 7 8 9 9 12 13 7 5 9 11 10 17 28 21 4 6 14 9 -3 -2 13 11 -1 -5 -3 6 8 7 8 5 6 10 9 10 13 12 10 11 9 9 9 6 6 6 7 9 11 13 10 7 10 11 8 6 12 14 11 12 9 9
8 9 10 8 9 8 6 7 6 5 8 8 8 7 2 4 7 7 10 8 5 7 7 6 4 6 10 8 8 8 6 5 5 5 5 5 7 9 10 11 12 14 12 8 8 8 9 10 11 20 13 -3 2 10 10 5 3 10 8 -0 -4 -4 4 8 6 7 9 10 9 8 7 9 11 10 10 10 10 8 5 7 7 8 11 10 13 11 6 9 10 7 6 9 10 10 9 14 17
12 12 11 8 8 7 7 8 4 5 7 7 10 7 4 9 5 5 12 7 3 6 8 7 4 5 8 8 9 9 8 6 6 6 6 7 9 11 12 12 12 11 10 10 11 6 11 18 14 14 8 -1 6 9 9 10 6 8 5 3 6 4 6 8 8 11 11 10 7 6 5 6 9 7 9 10 8 8 7 7 7 9 10 8 12 13 9 8 8 9 9 9 13 13 9 18 23
10 13 12 10 9 8 13 17 6 2 8 6 7 6 5 11 8 11 18 9 3 6 8 7 4 6 7 7 8 8 8 7 7 7 8 10 12 13 13 12 10 10 8 6 8 6 10 18 11 10 11 2 0 0 5 9 6 6 2 2 6 9 12 12 13 12 8 8 6 5 5 5 7 6 8 9 6 7 7 8 7 7 8 7 9 10 10 9 8 9 8 9 14 11 9 14 9
11 12 12 12 13 7 7 21 15 2 6 7 8 9 3 4 6 10 18 15 7 6 7 7 7 8 9 8 7 8 8 7 7 8 10 10 12 15 14 11 9 8 5 5 7 2 8 20 12 13 17 3 -3 6 13 11 4 2 2 6 11 13 15 13 12 9 5 7 5 5 6 5 6 5 7 7 6 7 7 8 7 7 8 7 7 7 8 9 8 8 7 9 11 5 6 9 4
13 13 13 13 17 10 -4 14 27 8 5 5 5 11 1 -0 5 -3 2 12 8 6 6 5 7 9 10 8 5 6 7 6 8 9 8 7 10 14 11 10 11 7 3 5 5 -0 7 17 13 15 12 2 7 15 14 9 3 2 5 11 13 13 13 9 7 6 5 6 5 6 5 5 6 6 7 7 7 8 8 9 7 6 9 8 7 7 7 9 7 8 8 9 11 8 7 8 7
22 17 15 11 13 16 -7 1 31 15 4 5 -1 7 -0 -6 6 -1 -6 3 4 6 6 4 7 8 7 8 6 5 6 5 5 4 3 5 8 11 11 10 10 6 1 1 1 4 8 6 10 18 12 12 18 9 9 12 6 4 9 13 13 9 8 5 4 5 4 5 6 6 5 5 6 5 7 7 8 9 9 10 6 4 7 7 7 6 6 8 8 8 9 9 9 10 10 9 5
21 25 27 14 5 21 1 -12 23 19 3 8 1 4 5 -5 1 2 -2 -1 1 5 5 3 7 6 3 6 5 4 4 3 2 3 4 6 8 9 10 10 10 5 -2 1 7 10 9 4 8 14 15 21 17 5 12 14 5 9 13 11 9 6 5 4 4 4 4 5 5 5 5 5 5 6 6 6 7 8 8 9 7 5 5 6 6 6 5 7 7 7 8 8 9 11 9 7 8
-2 10 20 16 -1 19 19 -9 5 14 2 5 3 1 7 4 3 5 8 7 3 5 5 5 6 5 4 6 6 4 4 2 3 4 4 6 8 9 9 9 10 3 -3 5 13 10 11 18 22 20 19 17 10 8 8 2 3 11 10 8 7 4 4 4 3 4 4 5 4 5 6 5 6 5 5 5 6 8 9 8 8 7 6 5 5 5 6 6 7 8 8 8 8 12 10 5 7
9 8 8 14 -2 4 26 15 5 15 13 4 4 6 2 5 9 6 8 10 9 7 6 6 6 6 6 7 7 5 4 4 5 5 6 7 8 9 9 9 7 2 2 6 9 6 5 18 25 19 15 12 14 15 2 -0 11 9 5 7 6 5 5 5 5 6 6 7 7 8 7 6 6 6 5 6 5 5 8 9 9 9 7 6 5 5 6 5 5 6 7 8 7 10 11 6 5
17 18 14 16 9 -5 6 17 2 2 18 11 3 8 5 7 10 2 1 7 10 9 7 7 7 6 6 6 6 5 5 5 6 7 7 7 8 8 6 7 6 4 6 9 11 10 9 24 23 6 6 6 6 10 3 8 13 3 5 7 4 6 6 5 7 7 9 11 11 10 9 8 7 7 6 6 6 6 7 9 10 11 9 7 6 6 6 6 6 5 5 7 7 7 9 7 5
9 16 16 11 15 4 -6 13 17 -2 4 13 7 7 10 10 6 0 3 8 9 10 9 8 7 7 6 6 5 6 8 7 9 10 9 8 7 7 5 7 8 5 8 12 12 11 16 26 10 -7 7 9 3 10 9 9 6 -2 1 2 4 7 4 5 7 8 12 12 11 9 7 7 7 8 8 7 8 7 6 8 10 11 12 10 8 7 6 6 6 5 5 5 6 7 8 7 6
12 12 16 8 7 13 0 3 27 22 7 7 6 6 12 12 9 7 8 10 10 11 10 9 9 9 8 9 10 13 15 15 15 12 9 9 7 7 9 8 6 7 11 12 9 10 14 10 -2 6 28 26 12 3 -5 -2 2 -3 -4 -0 4 6 4 6 7 9 11 9 8 8 5 6 7 8 9 8 8 8 8 8 9 11 12 12 11 9 8 7 6 5 5 6 5 6 6 6 7
14 12 18 11 -5 10 19 -1 2 21 21 17 14 11 15 17 17 15 11 10 12 10 9 12 13 13 13 13 16 17 17 14 12 10 9 9 9 10 10 7 7 10 14 13 11 11 11 5 8 20 24 16 4 -7 -9 -1 3 -1 -0 4 6 5 6 6 8 10 10 8 8 7 7 7 7 7 6 7 8 8 8 8 8 9 11 12 13 12 10 9 8 6 6 6 7 6 5 6 6
16 15 17 13 -11 -8 22 18 3 7 16 22 19 12 11 16 17 16 13 14 18 16 13 14 13 13 15 15 16 17 14 11 8 9 8 7 8 7 5 8 11 13 13 13 11 11 14 13 14 12 5 4 3 2 7 5 2 2 3 4 4 6 8 7 9 11 10 10 8 7 10 9 6 4 5 8 9 8 8 8 7 6 7 10 12 12 11 10 9 8 8 7 7 7 7 7 6
13 17 18 13 -2 -7 9 19 13 6 8 13 18 14 5 9 18 20 18 15 16 18 12 10 12 12 13 12 13 12 11 12 9 6 5 7 13 12 8 7 8 12 14 15 15 11 9 10 9 7 5 5 3 4 5 -0 2 8 5 4 5 6 9 9 10 11 9 8 8 11 12 8 5 5 8 10 9 8 7 6 6 6 7 7 9 11 11 10 9 8 8 8 8 8 8 8 8
4 13 20 13 8 8 10 13 10 7 8 8 19 21 3 6 19 14 16 15 9 11 9 8 14 15 12 9 10 11 11 8 5 6 5 7 15 16 9 6 10 12 10 17 22 12 10 19 22 17 12 11 8 6 3 -2 1 7 8 10 11 9 9 8 8 9 8 8 9 13 10 5 6 8 9 10 8 6 4 3 4 7 10 10 9 10 11 10 9 7 7 7 8 8 8 8 9
2 6 13 11 9 9 10 12 7 4 7 5 14 21 6 6 9 -2 8 18 7 7 10 10 15 16 11 7 8 12 11 6 5 9 8 3 5 8 4 4 10 7 2 11 18 14 21 26 18 12 13 16 16 15 15 14 13 8 1 0 8 12 8 5 7 7 7 8 7 8 8 7 8 9 11 11 8 6 5 4 3 5 9 11 10 10 11 12 11 9 8 7 7 7 8 8 8
5 8 10 11 12 11 11 12 7 5 12 11 8 15 9 -0 2 6 13 14 3 5 11 11 16 19 10 4 8 11 6 3 4 8 9 4 2 5 6 4 3 -1 4 11 6 6 14 5 -6 2 11 12 10 8 10 16 20 13 -3 -11 -4 7 9 6 6 6 5 6 6 8 9 8 8 9 11 10 8 6 6 5 3 4 5 7 9 8 8 11 12 11 10 8 7 6 7 7 6
6 6 9 12 13 12 12 10 7 7 12 12 7 13 10 -5 5 21 17 7 4 9 19 18 16 20 13 2 6 12 5 2 5 9 11 9 4 4 6 7 3 -2 6 15 10 6 6 -0 -1 7 9 8 7 6 6 7 11 12 6 1 -2 0 8 9 5 5 5 5 7 8 9 8 7 8 9 9 8 6 5 5 4 4 5 6 8 8 9 9 10 11 11 11 10 8 7 7 7
8 7 8 12 10 8 11 10 8 9 9 10 12 17 16 4 3 7 4 9 13 10 15 14 8 13 14 7 6 7 5 4 7 10 9 8 7 7 6 8 8 2 1 9 15 12 4 4 8 4 4 9 8 9 10 5 7 11 8 9 11 5 6 9 7 4 4 4 6 7 6 6 5 6 7 6 6 5 5 6 6 7 7 7 7 9 12 12 11 11 12 13 13 11 10 9 9
9 10 9 10 8 4 10 10 6 10 10 7 7 7 11 11 7 -2 -9 3 12 9 8 5 4 6 6 9 8 2 3 5 5 6 6 5 6 6 6 8 7 5 -0 -3 5 12 8 8 11 6 4 8 10 13 11 5 10 16 7 5 14 10 5 9 6 1 4 6 6 6 5 6 5 5 6 5 8 12 13 12 9 8 9 9 9 10 11 13 14 12 10 11 11 11 11 11 11
10 12 11 10 5 1 10 11 6 12 15 12 11 8 5 7 11 6 -7 -5 4 6 4 4 5 2 -1 4 2 -2 3 5 4 6 4 5 6 5 8 9 6 7 4 -5 -3 6 7 5 5 5 5 6 9 14 15 11 11 18 12 6 13 13 6 6 -1 -5 5 9 8 8 8 9 9 8 9 9 10 12 10 7 5 6 8 9 10 9 10 12 12 11 9 7 7 8 9 9 10
6 8 9 6 4 2 5 7 5 5 5 6 11 12 8 4 6 7 7 14 12 1 -0 6 6 1 2 4 -1 -1 4 2 0 2 3 5 5 3 6 8 6 7 6 1 -2 -1 5 6 0 -1 3 6 6 6 11 15 14 20 17 8 18 20 6 -4 -9 -7 5 10 12 13 11 11 11 11 12 10 8 5 1 1 4 8 10 11 11 11 11 11 11 10 9 8 6 6 6 6 7
6 9 5 -0 6 7 2 12 21 11 -3 -4 5 14 16 11 4 3 10 16 10 2 4 8 4 2 3 4 2 3 4 2 2 2 3 5 2 1 6 5 2 3 3 3 3 -0 2 9 9 5 4 7 8 5 7 13 15 17 10 9 26 26 5 -3 -2 1 7 10 18 18 10 8 9 10 10 8 7 3 0 5 10 11 12 11 11 11 11 11 11 10 10 9 8 6 5 5 4
2 15 12 0 7 9 -6 -2 15 16 5 -2 3 10 11 10 12 14 11 3 -2 5 10 7 4 3 1 2 4 5 5 6 7 5 3 4 3 3 4 2 1 4 5 6 10 8 3 4 6 4 2 1 2 1 2 10 18 18 9 13 27 18 4 7 9 7 7 7 14 14 5 6 9 9 9 10 12 11 9 11 11 10 10 7 5 5 7 8 7 8 8 7 7 6 6 5 5
-7 5 13 3 6 15 5 -3 -2 2 8 7 5 7 7 6 11 15 13 7 7 9 7 6 8 5 3 3 3 4 4 4 5 6 4 4 5 4 2 3 3 3 4 4 2 1 5 8 0 -5 1 2 -3 -3 2 11 20 20 11 14 22 12 5 12 12 13 14 6 3 4 4 6 7 6 7 10 17 21 19 14 9 7 7 3 2 2 4 6 7 7 7 6 6 6 7 7 8
-1 -2 6 1 1 7 7 11 12 6 8 12 11 13 18 15 7 6 10 13 17 18 14 10 8 4 5 6 4 3 3 3 4 4 3 3 4 3 3 5 6 7 10 14 13 5 5 10 1 -5 7 10 2 3 11 19 19 14 12 15 17 13 11 15 18 22 21 9 1 3 5 5 5 6 8 7 12 18 18 13 7 5 5 3 2 2 4 6 7 8 9 10 10 9 9 9 9
12 8 4 -0 3 8 2 4 14 11 6 11 12 8 10 10 4 3 5 4 9 17 18 15 11 7 7 6 7 6 4 4 4 3 5 6 7 7 7 8 9 10 9 13 21 17 9 8 4 -0 7 12 8 5 13 29 26 12 12 17 17 16 17 14 10 9 10 7 5 5 4 5 7 6 5 4 6 11 13 11 7 6 8 7 4 3 5 6 7 10 11 11 11 11 11 11 10
12 16 16 6 1 8 7 -1 3 6 3 5 11 11 11 10 6 6 7 7 10 10 10 12 13 12 13 12 13 12 10 11 11 10 11 10 10 10 9 9 9 10 10 9 12 14 12 16 16 10 9 11 14 19 25 32 28 16 15 18 18 17 12 4 1 3 6 6 5 5 4 6 6 5 5 6 7 10 11 12 11 10 9 7 5 5 6 7 9 10 9 7 6 6 7 7 8
Height
5839 5839 5840 5840 5840 5841 5841 5842 5842 5843 5843 5844 5845 5847 5848 5847 5846 5847 5847 5845 5845 5844 5845 5846 5846 5848 5848 5848 5850 5849 5850 5851 5851 5851 5850 5848 5848 5848 5849 5850 5849 5850 5849 5849 5849 5848 5848 5848 5848 5848 5848 5847 5847 5847 5847 5848 5847 5847 5846 5845 5845 5844 5844 5843 5843 5842 5841 5841 5841 5840 5840 5840 5839 5839 5839 5838 5838 5837 5837 5836 5836 5835 5835 5834 5834 5834 5833 5833 5834 5834 5834 5833 5834 5834 5834 5834 5834
5836 5836 5837 5837 5837 5837 5838 5839 5839 5839 5841 5842 5843 5845 5846 5842 5843 5846 5844 5840 5841 5842 5843 5845 5845 5845 5846 5847 5848 5847 5848 5848 5848 5848 5848 5847 5846 5846 5847 5848 5847 5848 5847 5847 5847 5847 5847 5846 5847 5846 5846 5846 5846 5846 5847 5846 5846 5845 5845 5844 5843 5843 5843 5842 5841 5840 5840 5839 5839 5838 5838 5838 5837 5837 5837 5837 5836 5836 5835 5835 5834 5834 5834 5833 5833 5832 5832 5832 5833 5833 5833 5833 5833 5833 5833 5833 5833
5833 5833 5833 5833 5834 5834 5835 5836 5837 5837 5839 5840 5841 5843 5843 5839 5841 5842 5838 5837 5839 5841 5842 5843 5843 5844 5845 5845 5845 5846 5845 5845 5846 5845 5845 5845 5845 5844 5845 5845 5845 5845 5846 5846 5845 5845 5845 5845 5845 5845 5845 5845 5845 5845 5845 5845 5844 5843 5843 5843 5842 5842 5841 5840 5839 5839 5838 5837 5837 5836 5836 5836 5836 5835 5835 5835 5835 5835 5834 5834 5833 5833 5832 5832 5831 5831 5831 5831 5831 5832 5832 5832 5832 5832 5832 5832 5833
5830 5830 5830 5831 5831 5831 5832 5833 5834 5835 5836 5838 5841 5842 5839 5837 5838 5836 5834 5836 5838 5840 5840 5841 5842 5843 5843 5842 5843 5844 5843 5842 5842 5842 5842 5843 5843 5843 5843 5844 5844 5843 5844 5844 5844 5844 5844 5843 5843 5843 5843 5843 5844 5844 5844 5843 5842 5842 5841 5841 5840 5840 5839 5838 5837 5837 5836 5835 5835 5834 5834 5834 5834 5833 5833 5833 5833 5833 5833 5833 5832 5832 5831 5831 5830 5830 5830 5830 5831 5831 5831 5831 5831 5831 5831 5831 5831
5827 5827 5827 5828 5828 5829 5829 5830 5831 5832 5835 5837 5842 5841 5836 5834 5833 5831 5832 5835 5837 5837 5838 5839 5840 5840 5840 5840 5841 5840 5840 5839 5839 5839 5840 5840 5841 5841 5841 5842 5842 5841 5842 5842 5842 5842 5842 5841 5841 5841 5842 5842 5842 5842 5842 5841 5840 5840 5839 5839 5838 5838 5837 5836 5835 5835 5834 5834 5833 5833 5833 5832 5832 5832 5832 5832 5832 5832 5832 5832 5831 5830 5830 5829 5829 5829 5829 5829 5830 5830 5830 5830 5830 5830 5830 5830 5830
5824 5824 5825 5825 5825 5826 5827 5827 5828 5830 5832 5834 5838 5836 5831 5828 5827 5828 5831 5834 5835 5835 5836 5837 5837 5838 5838 5838 5838 5837 5837 5837 5837 5837 5837 5838 5838 5839 5839 5840 5840 5840 5840 5840 5840 5840 5839 5839 5839 5840 5840 5841 5841 5840 5840 5839 5838 5838 5837 5837 5836 5835 5835 5834 5834 5833 5833 5833 5832 5831 5831 5830 5830 5831 5831 5831 5831 5831 5832 5831 5830 5829 5829 5828 5828 5828 5828 5828 5828 5828 5829 5829 5829 5829 5829 5829 5829
5821 5821 5822 5822 5823 5824 5824 5825 5826 5828 5829 5831 5833 5829 5825 5824 5826 5829 5830 5832 5832 5833 5834 5834 5835 5836 5835 5835 5835 5834 5835 5834 5834 5835 5835 5836 5836 5836 5837 5837 5838 5838 5838 5837 5837 5837 5837 5837 5838 5838 5839 5839 5839 5838 5837 5837 5836 5836 5835 5835 5834 5833 5833 5832 5832 5831 5831 5831 5830 5830 5829 5829 5829 5829 5829 5829 5829 5830 5830 5830 5829 5828 5828 5828 5827 5827 5827 5827 5827 5827 5828 5828 5828 5828 5828 5828 5828
5818 5818 5819 5820 5820 5821 5822 5823 5824 5826 5827 5827 5827 5824 5821 5823 5826 5828 5828 5829 5829 5831 5832 5831 5832 5833 5833 5833 5832 5831 5832 5832 5832 5833 5833 5833 5834 5834 5834 5835 5835 5835 5835 5835 5834 5834 5835 5836 5837 5837 5837 5837 5836 5836 5835 5835 5834 5834 5834 5833 5832 5831 5830 5830 5830 5829 5829 5829 5828 5828 5827 5827 5827 5827 5827 5827 5828 5828 5829 5828 5828 5827 5827 5827 5827 5826 5826 5826 5826 5826 5827 5827 5827 5827 5827 5827 5828
5815 5816 5816 5817 5818 5819 5820 5821 5822 5824 5824 5822 5822 5820 5819 5821 5824 5825 5825 5826 5826 5828 5829 5829 5830 5831 5831 5830 5829 5828 5828 5829 5829 5830 5831 5831 5832 5832 5832 5833 5833 5833 5832 5832 5832 5833 5835 5836 5836 5836 5835 5835 5834 5833 5833 5833 5832 5832 5831 5830 5829 5828 5828 5827 5827 5827 5826 5826 5826 5826 5824 5823 5824 5825 5825 5826 5826 5827 5827 5827 5827 5827 5826 5826 5825 5825 5825 5825 5825 5825 5826 5826 5826 5826 5827 5827 5827
5812 5813 5814 5815 5815 5817 5817 5819 5820 5821 5822 5819 5817 5817 5818 5820 5822 5822 5823 5824 5824 5826 5826 5827 5828 5828 5828 5828 5827 5826 5826 5826 5827 5828 5829 5829 5830 5830 5830 5830 5831 5831 5830 5830 5831 5833 5834 5835 5834 5834 5833 5832 5831 5831 5830 5830 5829 5828 5828 5827 5826 5825 5825 5824 5824 5823 5823 5823 5823 5823 5822 5821 5821 5823 5823 5824 5825 5825 5826 5825 5825 5825 5825 5825 5824 5824 5824 5824 5824 5824 5825 5826 5826 5826 5826 5826 5826
5809 5810 5811 5812 5813 5815 5816 5817 5818 5819 5819 5815 5814 5816 5817 5819 5820 5821 5821 5821 5821 5823 5823 5825 5826 5826 5826 5825 5824 5823 5823 5824 5825 5826 5827 5827 5828 5828 5828 5829 5829 5829 5828 5829 5831 5833 5833 5833 5831 5830 5829 5829 5829 5829 5828 5827 5826 5825 5824 5823 5822 5822 5821 5821 5821 5821 5821 5821 5820 5820 5820 5819 5820 5821 5821 5822 5823 5824 5824 5824 5824 5824 5824 5823 5823 5823 5823 5823 5824 5824 5824 5825 5825 5825 5826 5826 5826
5807 5808 5809 5810 5811 5813 5814 5816 5818 5819 5815 5812 5814 5814 5815 5818 5819 5818 5818 5818 5819 5820 5821 5823 5824 5824 5823 5822 5821 5820 5821 5822 5823 5824 5825 5825 5825 5826 5827 5827 5827 5826 5827 5829 5831 5831 5830 5828 5827 5827 5826 5827 5827 5826 5825 5824 5822 5820 5820 5819 5819 5819 5819 5819 5819 5819 5819 5819 5819 5818 5818 5818 5818 5819 5820 5821 5822 5822 5823 5823 5823 5823 5823 5823 5823 5823 5823 5823 5823 5823 5823 5824 5824 5824 5825 5825 5825
5804 5805 5806 5807 5809 5811 5812 5814 5816 5816 5811 5812 5813 5810 5814 5817 5815 5815 5816 5816 5818 5819 5819 5820 5822 5822 5820 5819 5819 5819 5819 5821 5822 5822 5823 5823 5823 5824 5825 5825 5825 5826 5827 5828 5827 5827 5826 5825 5824 5824 5824 5824 5825 5824 5822 5820 5817 5816 5816 5816 5817 5817 5817 5818 5818 5818 5818 5817 5817 5817 5817 5817 5817 5817 5818 5820 5821 5821 5821 5821 5821 5821 5821 5822 5822 5822 5821 5821 5822 5822 5822 5822 5822 5823 5823 5823 5823
5802 5803 5804 5805 5807 5808 5809 5811 5812 5812 5811 5811 5807 5808 5813 5813 5812 5813 5814 5815 5816 5817 5817 5819 5820 5819 5818 5817 5817 5817 5818 5819 5820 5821 5821 5821 5822 5823 5824 5824 5824 5825 5826 5824 5823 5823 5823 5822 5821 5821 5821 5822 5822 5820 5818 5814 5812 5812 5813 5814 5815 5815 5815 5816 5816 5816 5816 5816 5817 5817 5816 5815 5816 5816 5817 5819 5819 5819 5820 5820 5820 5820 5820 5820 5820 5820 5820 5820 5820 5820 5820 5820 5820 5820 5821 5821 5822
5799 5800 5801 5802 5804 5805 5807 5808 5810 5810 5811 5807 5803 5808 5810 5809 5810 5811 5812 5813 5814 5814 5815 5817 5817 5816 5816 5816 5816 5816 5817 5818 5818 5819 5819 5820 5821 5821 5822 5822 5821 5822 5822 5821 5820 5819 5819 5819 5819 5819 5819 5819 5818 5816 5814 5810 5809 5810 5812 5813 5814 5814 5814 5814 5814 5814 5815 5815 5816 5815 5814 5813 5813 5814 5816 5817 5818 5818 5818 5818 5818 5818 5818 5818 5818 5818 5818 5819 5819 5818 5818 5818 5818 5818 5819 5819 5820
5796 5797 5798 5800 5801 5804 5805 5806 5807 5808 5809 5803 5800 5807 5807 5805 5809 5809 5810 5811 5811 5813 5814 5814 5814 5814 5814 5814 5814 5814 5815 5816 5816 5817 5818 5819 5819 5819 5820 5820 5819 5819 5819 5818 5817 5817 5816 5816 5816 5816 5816 5816 5815 5812 5809 5807 5807 5808 5810 5812 5813 5812 5811 5812 5812 5812 5812 5813 5813 5812 5812 5811 5811 5813 5815 5816 5816 5816 5816 5817 5817 5817 5817 5816 5817 5817 5817 5817 5816 5816 5816 5816 5816 5816 5816 5817 5817
5793 5794 5796 5798 5799 5802 5803 5804 5805 5806 5805 5798 5798 5805 5804 5803 5806 5807 5808 5808 5809 5811 5810 5810 5811 5811 5812 5812 5812 5812 5813 5814 5815 5816 5817 5817 5817 5817 5818 5818 5817 5817 5816 5815 5815 5816 5815 5814 5813 5814 5814 5812 5811 5809 5808 5806 5806 5807 5809 5811 5810 5809 5809 5809 5809 5809 5809 5810 5811 5811 5811 5810 5809 5812 5814 5814 5814 5814 5814 5815 5815 5815 5815 5815 5815 5815 5815 5815 5814 5814 5814 5814 5814 5814 5814 5815 5815
5791 5792 5793 5795 5797 5800 5802 5803 5802 5802 5799 5794 5797 5803 5802 5801 5804 5805 5806 5806 5807 5808 5807 5808 5808 5808 5809 5810 5809 5810 5811 5812 5814 5815 5815 5815 5815 5815 5815 5815 5815 5815 5814 5813 5814 5814 5813 5812 5811 5811 5811 5810 5807 5806 5808 5808 5806 5807 5808 5809 5808 5806 5806 5806 5807 5807 5808 5809 5810 5810 5810 5809 5808 5811 5813 5812 5812 5812 5814 5814 5814 5814 5814 5814 5814 5814 5813 5813 5812 5812 5812 5812 5813 5813 5813 5812 5812
5788 5789 5791 5793 5795 5798 5798 5797 5796 5796 5795 5793 5797 5801 5800 5800 5802 5803 5803 5804 5805 5805 5805 5805 5805 5805 5806 5806 5806 5808 5810 5812 5813 5813 5813 5813 5813 5812 5812 5813 5813 5813 5812 5812 5812 5812 5811 5810 5810 5810 5809 5809 5807 5804 5806 5807 5805 5805 5806 5807 5807 5805 5805 5805 5806 5807 5808 5809 5810 5810 5809 5808 5808 5810 5811 5811 5811 5811 5812 5812 5812 5813 5813 5813 5813 5812 5812 5811 5811 5810 5810 5811 5811 5811 5811 5810 5810
5786 5787 5789 5791 5794 5794 5791 5791 5791 5791 5792 5793 5797 5798 5798 5799 5799 5801 5802 5802 5802 5802 5802 5802 5802 5803 5803 5803 5804 5806 5808 5810 5811 5811 5811 5811 5810 5810 5810 5810 5811 5810 5810 5811 5810 5810 5809 5808 5808 5809 5808 5805 5804 5803 5803 5803 5803 5804 5804 5806 5806 5805 5805 5805 5805 5806 5807 5808 5809 5809 5807 5805 5806 5808 5809 5809 5809 5810 5810 5810 5810 5811 5811 5811 5811 5810 5810 5809 5809 5809 5809 5809 5809 5810 5809 5809 5809
5784 5784 5787 5789 5790 5789 5788 5789 5789 5789 5791 5792 5795 5796 5796 5796 5797 5799 5800 5800 5800 5799 5799 5800 5800 5800 5800 5801 5803 5805 5806 5807 5808 5808 5808 5808 5808 5808 5808 5808 5808 5808 5808 5808 5808 5808 5807 5808 5807 5806 5806 5803 5801 5801 5801 5801 5802 5802 5803 5804 5805 5804 5803 5803 5803 5804 5806 5807 5808 5808 5808 5805 5803 5805 5806 5807 5808 5808 5807 5807 5808 5808 5808 5808 5808 5808 5808 5807 5807 5807 5807 5808 5808 5808 5808 5807 5807
5781 5782 5785 5786 5785 5785 5786 5785 5785 5787 5789 5791 5793 5794 5793 5794 5795 5796 5798 5799 5798 5797 5797 5798 5798 5799 5799 5799 5801 5802 5803 5804 5805 5805 5806 5806 5806 5806 5806 5806 5806 5807 5807 5807 5806 5806 5805 5808 5807 5803 5803 5803 5800 5799 5799 5799 5800 5801 5802 5803 5803 5802 5802 5802 5802 5803 5805 5807 5808 5809 5809 5806 5801 5802 5804 5805 5807 5807 5805 5805 5805 5805 5806 5806 5806 5806 5806 5806 5806 5806 5806 5806 5806 5806 5806 5806 5806
5779 5781 5783 5782 5781 5784 5783 5781 5784 5786 5787 5789 5790 5791 5792 5793 5793 5794 5796 5795 5794 5795 5796 5797 5797 5798 5798 5797 5799 5800 5801 5802 5802 5803 5804 5804 5804 5803 5804 5804 5805 5805 5805 5805 5804 5804 5804 5805 5806 5801 5800 5801 5799 5798 5798 5798 5799 5800 5801 5801 5802 5802 5801 5801 5802 5803 5803 5805 5807 5808 5808 5804 5801 5802 5802 5804 5806 5805 5803 5803 5802 5802 5803 5804 5803 5804 5805 5804 5804 5804 5804 5804 5805 5805 5804 5804 5804
5777 5778 5780 5779 5780 5782 5779 5779 5783 5784 5784 5786 5787 5789 5790 5791 5791 5791 5792 5791 5792 5794 5795 5796 5796 5795 5795 5795 5796 5798 5799 5799 5800 5801 5802 5802 5801 5801 5802 5802 5803 5803 5803 5803 5801 5801 5802 5803 5803 5800 5798 5798 5796 5795 5796 5797 5798 5799 5800 5800 5801 5801 5801 5800 5801 5802 5802 5803 5805 5806 5805 5803 5801 5802 5802 5803 5805 5804 5802 5802 5801 5800 5801 5802 5802 5802 5803 5803 5803 5802 5803 5803 5803 5803 5803 5802 5802
5775 5776 5777 5776 5777 5778 5777 5778 5781 5781 5782 5783 5785 5787 5788 5788 5788 5788 5790 5789 5791 5793 5793 5794 5795 5793 5793 5794 5795 5796 5797 5797 5798 5799 5799 5799 5799 5799 5800 5800 5801 5801 5801 5800 5799 5799 5801 5801 5800 5799 5797 5796 5795 5794 5794 5795 5797 5798 5798 5798 5799 5800 5800 5800 5801 5802 5802 5802 5803 5803 5802 5801 5801 5802 5802 5802 5803 5803 5802 5801 5801 5801 5801 5801 5801 5800 5800 5801 5802 5802 5801 5801 5801 5801 5801 5801 5801
5772 5773 5774 5774 5775 5776 5776 5777 5778 5779 5780 5780 5783 5784 5785 5785 5785 5788 5788 5787 5789 5791 5790 5792 5793 5792 5792 5793 5793 5794 5794 5795 5796 5797 5797 5797 5797 5797 5798 5799 5799 5799 5799 5798 5797 5797 5799 5798 5797 5796 5795 5794 5793 5793 5794 5794 5795 5795 5796 5796 5798 5799 5798 5799 5800 5801 5801 5800 5800 5801 5800 5800 5800 5801 5801 5801 5802 5801 5801 5801 5802 5801 5800 5800 5800 5800 5800 5800 5801 5801 5800 5799 5799 5800 5800 5800 5800
5769 5770 5770 5771 5773 5774 5774 5774 5776 5777 5778 5778 5780 5782 5783 5782 5784 5786 5785 5785 5787 5788 5788 5790 5790 5790 5790 5791 5791 5792 5792 5793 5794 5794 5795 5795 5794 5795 5796 5797 5797 5797 5797 5796 5795 5795 5796 5795 5794 5793 5793 5792 5791 5791 5792 5793 5793 5793 5794 5795 5796 5797 5797 5798 5799 5799 5800 5799 5799 5799 5798 5799 5799 5800 5800 5800 5800 5799 5799 5799 5800 5801 5800 5799 5799 5799 5799 5800 5800 5800 5799 5798 5798 5798 5798 5798 5798
5765 5767 5768 5768 5771 5772 5771 5773 5774 5775 5776 5777 5778 5780 5780 5779 5783 5785 5782 5783 5785 5785 5787 5788 5787 5787 5787 5789 5789 5789 5790 5791 5792 5792 5792 5792 5792 5794 5795 5796 5796 5795 5795 5794 5793 5793 5792 5792 5791 5790 5790 5790 5789 5789 5790 5790 5791 5792 5793 5793 5793 5795 5796 5797 5796 5796 5797 5797 5797 5797 5797 5798 5798 5799 5799 5798 5798 5798 5797 5797 5797 5798 5798 5798 5798 5797 5798 5799 5799 5799 5798 5798 5798 5798 5797 5797 5797
5762 5765 5766 5766 5769 5769 5770 5771 5772 5773 5774 5775 5776 5777 5776 5778 5782 5783 5780 5781 5783 5783 5784 5785 5785 5785 5785 5786 5787 5787 5789 5789 5789 5789 5790 5790 5791 5793 5794 5794 5794 5794 5793 5793 5792 5791 5790 5789 5789 5788 5788 5788 5787 5787 5788 5788 5790 5791 5792 5793 5792 5792 5794 5794 5795 5795 5795 5795 5795 5796 5796 5796 5797 5797 5797 5797 5797 5797 5796 5795 5796 5796 5796 5796 5796 5796 5797 5798 5797 5797 5797 5797 5798 5798 5798 5797 5797
5759 5762 5763 5764 5766 5766 5768 5769 5770 5771 5771 5773 5773 5774 5775 5777 5781 5780 5777 5779 5781 5781 5782 5783 5783 5783 5783 5784 5784 5785 5786 5786 5787 5787 5788 5789 5791 5792 5792 5792 5792 5792 5792 5791 5790 5788 5787 5786 5786 5786 5785 5785 5786 5786 5787 5787 5788 5789 5791 5792 5791 5790 5791 5792 5793 5793 5793 5793 5793 5793 5793 5794 5795 5795 5796 5796 5796 5796 5795 5795 5795 5795 5795 5795 5796 5796 5796 5795 5795 5795 5795 5796 5796 5796 5796 5797 5797
5757 5759 5760 5761 5762 5764 5766 5767 5768 5768 5769 5770 5771 5773 5774 5775 5779 5777 5775 5778 5779 5779 5780 5781 5780 5780 5781 5782 5783 5784 5784 5784 5784 5785 5786 5788 5790 5790 5791 5791 5791 5791 5790 5789 5787 5785 5784 5783 5783 5785 5783 5783 5783 5784 5785 5786 5785 5787 5789 5789 5788 5788 5789 5789 5790 5791 5791 5791 5791 5791 5792 5792 5794 5794 5795 5795 5795 5795 5794 5794 5794 5794 5794 5794 5795 5795 5793 5793 5794 5795 5795 5795 5795 5795 5795 5796 5797
5754 5755 5756 5758 5760 5763 5765 5764 5764 5767 5767 5768 5769 5771 5773 5776 5779 5775 5773 5776 5776 5777 5778 5778 5778 5778 5779 5780 5781 5782 5782 5782 5783 5783 5785 5787 5788 5789 5789 5789 5789 5789 5788 5786 5784 5782 5781 5780 5780 5782 5781 5780 5781 5781 5782 5783 5783 5785 5786 5786 5786 5786 5787 5787 5788 5789 5789 5790 5790 5790 5791 5791 5792 5793 5794 5794 5794 5793 5793 5793 5793 5793 5793 5793 5794 5793 5792 5792 5793 5794 5795 5796 5796 5795 5795 5796 5797
5751 5752 5754 5756 5758 5762 5765 5761 5761 5766 5765 5764 5767 5770 5773 5777 5778 5773 5770 5773 5774 5775 5776 5776 5777 5776 5777 5779 5779 5780 5780 5781 5781 5782 5784 5785 5786 5786 5787 5787 5787 5786 5785 5782 5779 5778 5780 5780 5780 5781 5781 5779 5780 5780 5780 5781 5782 5783 5784 5784 5785 5786 5786 5786 5787 5788 5789 5789 5789 5790 5790 5791 5791 5792 5793 5793 5793 5792 5791 5791 5792 5792 5792 5792 5793 5792 5791 5791 5792 5793 5794 5796 5796 5795 5795 5796 5796
5749 5751 5753 5755 5757 5760 5764 5760 5758 5763 5763 5761 5765 5769 5772 5773 5772 5770 5769 5770 5772 5773 5774 5774 5775 5774 5775 5776 5777 5778 5778 5779 5779 5781 5783 5784 5784 5784 5785 5785 5785 5783 5780 5777 5774 5775 5780 5781 5780 5781 5781 5780 5780 5779 5778 5779 5781 5782 5783 5784 5785 5785 5785 5786 5787 5788 5789 5789 5789 5789 5790 5791 5792 5792 5792 5792 5792 5791 5790 5790 5790 5790 5791 5791 5791 5791 5791 5790 5791 5792 5793 5795 5795 5794 5795 5795 5795
5748 5749 5751 5753 5755 5756 5761 5762 5757 5759 5760 5760 5763 5766 5769 5769 5767 5766 5767 5769 5770 5771 5772 5772 5772 5773 5774 5774 5775 5776 5777 5777 5778 5779 5781 5782 5782 5782 5782 5782 5782 5780 5775 5772 5772 5775 5778 5779 5778 5778 5778 5778 5779 5779 5777 5778 5780 5781 5783 5784 5784 5785 5785 5786 5787 5788 5789 5789 5789 5790 5790 5790 5791 5791 5791 5791 5791 5790 5790 5789 5788 5788 5789 5790 5790 5790 5790 5790 5790 5790 5791 5792 5793 5793 5794 5793 5793
5747 5748 5749 5750 5754 5754 5758 5761 5755 5754 5757 5758 5761 5763 5766 5768 5766 5763 5764 5767 5768 5769 5769 5769 5770 5771 5772 5772 5773 5774 5775 5776 5776 5777 5779 5780 5780 5780 5780 5780 5779 5775 5770 5769 5773 5776 5775 5774 5774 5775 5775 5775 5777 5777 5777 5778 5780 5781 5783 5783 5784 5785 5785 5786 5787 5787 5788 5789 5789 5789 5790 5790 5790 5790 5790 5790 5790 5790 5789 5789 5788 5788 5788 5789 5789 5789 5789 5789 5789 5789 5790 5790 5791 5792 5792 5792 5792
5741 5744 5746 5748 5752 5752 5756 5758 5750 5749 5756 5757 5759 5762 5763 5765 5766 5763 5761 5764 5766 5766 5767 5767 5768 5769 5769 5770 5771 5772 5773 5774 5774 5775 5777 5778 5778 5778 5777 5776 5774 5770 5767 5769 5772 5774 5773 5771 5771 5774 5775 5775 5776 5776 5777 5779 5780 5781 5782 5782 5783 5784 5785 5785 5786 5786 5787 5787 5788 5788 5789 5789 5789 5789 5789 5789 5789 5789 5788 5788 5788 5788 5787 5788 5788 5788 5788 5789 5789 5789 5790 5790 5790 5790 5791 5791 5790
5738 5741 5744 5746 5749 5752 5755 5754 5746 5747 5754 5756 5757 5760 5760 5761 5764 5762 5758 5760 5763 5764 5765 5765 5766 5767 5767 5767 5769 5770 5771 5772 5773 5774 5775 5776 5776 5776 5775 5773 5770 5766 5765 5769 5771 5772 5771 5771 5772 5773 5775 5776 5776 5777 5778 5778 5778 5779 5780 5781 5782 5783 5784 5784 5785 5785 5786 5786 5787 5787 5787 5788 5788 5788 5787 5787 5787 5788 5788 5788 5787 5787 5787 5787 5786 5786 5787 5787 5788 5788 5788 5789 5789 5789 5789 5790 5790
5738 5739 5742 5744 5747 5750 5752 5748 5743 5746 5752 5755 5756 5756 5757 5759 5761 5758 5755 5759 5761 5761 5763 5763 5763 5764 5764 5765 5766 5768 5769 5770 5771 5772 5772 5773 5773 5773 5772 5770 5766 5763 5764 5768 5771 5770 5770 5771 5772 5772 5773 5774 5775 5776 5777 5777 5776 5778 5779 5780 5782 5782 5783 5784 5784 5784 5785 5785 5785 5785 5786 5786 5786 5786 5786 5786 5786 5786 5786 5787 5787 5786 5786 5786 5785 5785 5786 5786 5786 5786 5786 5787 5788 5788 5788 5788 5788
5736 5738 5740 5742 5745 5748 5749 5745 5743 5747 5750 5753 5753 5753 5754 5755 5755 5754 5754 5757 5758 5759 5761 5761 5761 5762 5762 5763 5764 5766 5767 5768 5769 5769 5769 5770 5770 5770 5770 5767 5762 5761 5763 5767 5769 5768 5768 5769 5769 5770 5770 5771 5772 5773 5774 5774 5775 5776 5778 5779 5781 5781 5782 5782 5783 5783 5783 5783 5784 5784 5785 5785 5785 5785 5785 5785 5785 5785 5785 5785 5785 5785 5785 5785 5785 5785 5785 5784 5784 5785 5785 5785 5786 5787 5787 5787 5787
5734 5735 5737 5740 5743 5746 5746 5742 5742 5744 5746 5750 5751 5750 5751 5750 5751 5752 5753 5754 5755 5757 5758 5758 5758 5759 5759 5760 5761 5763 5765 5766 5766 5766 5766 5766 5766 5767 5766 5763 5758 5758 5761 5765 5767 5766 5765 5765 5766 5767 5768 5769 5771 5771 5772 5772 5773 5775 5776 5778 5779 5780 5780 5780 5781 5781 5782 5782 5782 5782 5783 5783 5784 5784 5783 5783 5783 5783 5784 5784 5784 5784 5784 5785 5784 5784 5784 5784 5784 5784 5784 5784 5785 5785 5786 5786 5786
5732 5733 5735 5738 5740 5742 5742 5739 5740 5743 5745 5747 5748 5749 5749 5747 5749 5750 5750 5752 5753 5754 5755 5755 5755 5756 5757 5758 5759 5760 5762 5763 5763 5762 5761 5761 5762 5763 5762 5759 5756 5756 5760 5764 5765 5763 5762 5763 5764 5766 5766 5768 5769 5770 5769 5769 5770 5772 5774 5775 5776 5777 5778 5778 5779 5779 5780 5780 5781 5781 5781 5782 5782 5782 5782 5782 5782 5782 5782 5783 5783 5783 5783 5784 5784 5784 5784 5783 5783 5783 5784 5784 5783 5784 5784 5785 5784
5730 5732 5733 5735 5736 5737 5738 5737 5740 5743 5744 5744 5744 5747 5748 5746 5745 5747 5748 5749 5750 5751 5751 5751 5751 5752 5753 5754 5756 5758 5759 5759 5759 5758 5756 5756 5759 5761 5761 5759 5757 5757 5760 5764 5764 5761 5759 5761 5762 5763 5764 5765 5766 5767 5766 5767 5768 5770 5771 5773 5773 5774 5775 5776 5777 5778 5779 5779 5779 5780 5780 5780 5780 5780 5780 5780 5780 5781 5781 5782 5782 5782 5782 5783 5783 5783 5783 5783 5783 5783 5783 5783 5782 5782 5783 5783 5783
5728 5729 5731 5732 5733 5734 5735 5736 5739 5741 5740 5740 5741 5744 5746 5745 5743 5744 5745 5746 5747 5747 5748 5748 5749 5750 5750 5752 5753 5755 5756 5756 5756 5754 5752 5755 5759 5760 5760 5759 5757 5758 5760 5762 5762 5758 5757 5758 5759 5761 5762 5762 5763 5764 5765 5766 5767 5768 5769 5770 5771 5772 5773 5774 5775 5776 5776 5777 5777 5778 5778 5779 5779 5778 5778 5778 5779 5779 5780 5780 5781 5781 5781 5781 5782 5782 5782 5782 5782 5782 5782 5782 5781 5781 5781 5781 5782
5726 5727 5728 5730 5731 5733 5734 5736 5738 5738 5738 5738 5740 5741 5743 5743 5742 5742 5743 5744 5744 5744 5745 5746 5746 5747 5748 5749 5751 5753 5754 5753 5752 5750 5751 5756 5760 5760 5759 5757 5755 5757 5758 5759 5759 5757 5757 5757 5758 5761 5763 5764 5764 5765 5766 5766 5767 5767 5768 5769 5770 5771 5772 5773 5774 5774 5774 5775 5775 5776 5777 5777 5777 5777 5777 5777 5777 5778 5778 5779 5779 5779 5780 5780 5780 5780 5780 5781 5781 5781 5781 5781 5780 5780 5780 5780 5781
5723 5725 5727 5728 5730 5731 5732 5734 5736 5736 5735 5736 5738 5739 5741 5743 5741 5739 5741 5742 5741 5741 5743 5743 5743 5744 5746 5747 5749 5750 5752 5751 5748 5748 5752 5757 5758 5759 5758 5755 5753 5754 5756 5758 5758 5759 5759 5758 5759 5762 5764 5765 5765 5767 5767 5767 5768 5768 5768 5768 5769 5770 5770 5771 5772 5772 5772 5773 5773 5774 5775 5775 5775 5775 5775 5775 5776 5776 5776 5777 5777 5778 5778 5778 5778 5778 5779 5779 5779 5779 5779 5779 5779 5779 5779 5779 5779
5722 5724 5726 5727 5728 5730 5731 5733 5733 5733 5733 5735 5736 5737 5740 5742 5739 5737 5739 5739 5738 5739 5740 5741 5742 5744 5744 5744 5745 5748 5750 5749 5748 5750 5753 5754 5755 5756 5756 5755 5753 5753 5755 5757 5758 5759 5759 5758 5759 5761 5763 5764 5764 5765 5765 5765 5766 5767 5768 5768 5768 5768 5769 5769 5770 5770 5770 5770 5771 5772 5773 5773 5773 5774 5774 5774 5774 5774 5775 5775 5775 5776 5776 5776 5776 5776 5777 5777 5777 5777 5777 5778 5777 5777 5777 5777 5777
5721 5723 5725 5726 5727 5728 5729 5731 5730 5730 5731 5733 5735 5735 5737 5739 5738 5737 5737 5735 5735 5737 5738 5739 5741 5742 5743 5743 5744 5747 5748 5748 5749 5751 5751 5751 5752 5753 5754 5754 5754 5753 5753 5755 5756 5756 5757 5757 5757 5758 5760 5761 5762 5763 5764 5763 5764 5764 5765 5766 5767 5767 5768 5767 5768 5768 5768 5768 5769 5770 5771 5772 5772 5772 5772 5773 5773 5773 5773 5773 5774 5774 5774 5774 5774 5774 5774 5775 5775 5775 5775 5775 5775 5776 5775 5775 5775
5720 5722 5724 5725 5726 5726 5727 5728 5728 5729 5730 5731 5733 5734 5735 5736 5736 5734 5732 5732 5733 5735 5736 5738 5739 5741 5743 5743 5744 5745 5744 5746 5748 5750 5750 5750 5750 5750 5752 5753 5753 5754 5753 5753 5754 5753 5754 5755 5756 5756 5757 5758 5759 5760 5761 5762 5762 5762 5763 5764 5765 5766 5766 5766 5766 5766 5766 5766 5767 5768 5769 5770 5770 5771 5771 5771 5771 5772 5772 5772 5772 5772 5772 5772 5772 5772 5772 5773 5773 5773 5773 5773 5773 5773 5774 5773 5774
5719 5721 5722 5723 5724 5724 5725 5726 5728 5729 5729 5730 5731 5732 5733 5734 5732 5730 5730 5732 5733 5733 5734 5736 5738 5739 5741 5741 5743 5742 5741 5743 5747 5749 5750 5749 5747 5748 5750 5751 5753 5753 5752 5752 5752 5752 5752 5754 5755 5755 5755 5755 5756 5756 5757 5759 5759 5760 5761 5762 5762 5763 5764 5764 5764 5764 5764 5764 5765 5766 5767 5768 5769 5769 5770 5770 5770 5770 5770 5770 5770 5770 5770 5770 5770 5770 5770 5771 5771 5771 5771 5771 5771 5772 5772 5772 5772
5717 5719 5720 5721 5722 5723 5723 5725 5727 5728 5728 5728 5728 5728 5731 5731 5729 5728 5730 5732 5733 5733 5733 5733 5734 5735 5736 5735 5736 5737 5738 5742 5746 5749 5749 5747 5744 5745 5747 5749 5751 5751 5751 5751 5751 5751 5751 5752 5753 5753 5753 5753 5753 5754 5755 5755 5756 5757 5758 5759 5760 5760 5761 5762 5762 5762 5763 5763 5763 5763 5764 5765 5766 5767 5768 5768 5768 5768 5768 5769 5769 5768 5768 5768 5768 5768 5768 5768 5769 5769 5770 5770 5770 5770 5770 5770 5770
5715 5716 5717 5719 5721 5722 5722 5723 5723 5724 5726 5726 5726 5726 5727 5727 5726 5727 5729 5730 5731 5732 5732 5731 5731 5732 5732 5731 5732 5734 5736 5740 5744 5747 5747 5745 5742 5742 5745 5748 5749 5749 5750 5750 5751 5750 5750 5751 5751 5751 5751 5751 5752 5752 5752 5753 5753 5754 5755 5756 5756 5757 5758 5759 5760 5760 5761 5761 5761 5761 5761 5762 5763 5764 5765 5766 5766 5767 5767 5767 5766 5766 5766 5766 5766 5766 5767 5767 5767 5767 5768 5768 5768 5768 5768 5769 5769
5713 5714 5715 5718 5720 5720 5720 5720 5721 5722 5723 5724 5724 5724 5724 5724 5724 5725 5727 5728 5729 5730 5730 5730 5731 5732 5732 5732 5732 5732 5734 5736 5740 5743 5744 5743 5740 5741 5745 5746 5746 5747 5747 5747 5748 5748 5748 5749 5750 5749 5749 5749 5750 5750 5749 5750 5750 5751 5752 5752 5753 5755 5756 5757 5758 5758 5759 5759 5759 5759 5759 5759 5760 5761 5762 5763 5764 5765 5765 5764 5764 5764 5764 5764 5764 5765 5765 5765 5765 5765 5766 5766 5766 5767 5767 5767 5767
5710 5712 5714 5716 5717 5716 5717 5718 5719 5720 5721 5722 5722 5722 5722 5723 5722 5721 5723 5724 5725 5726 5727 5729 5730 5731 5732 5732 5732 5731 5732 5733 5735 5738 5740 5740 5739 5740 5742 5743 5743 5743 5744 5744 5744 5745 5746 5747 5748 5748 5747 5748 5748 5748 5747 5747 5747 5748 5749 5750 5750 5752 5754 5755 5756 5756 5757 5757 5757 5757 5757 5757 5758 5759 5760 5761 5762 5762 5762 5762 5761 5762 5762 5762 5763 5763 5763 5763 5764 5764 5764 5764 5764 5765 5765 5765 5765
5707 5708 5710 5713 5714 5714 5715 5715 5716 5718 5719 5720 5720 5720 5722 5723 5721 5719 5719 5720 5721 5722 5724 5726 5728 5729 5731 5731 5731 5731 5731 5731 5732 5733 5735 5737 5737 5736 5737 5739 5741 5741 5742 5742 5742 5742 5743 5744 5745 5745 5745 5745 5746 5745 5745 5744 5745 5745 5746 5747 5748 5750 5751 5752 5753 5753 5754 5755 5755 5756 5756 5756 5756 5757 5758 5759 5759 5760 5760 5759 5759 5760 5760 5761 5761 5761 5761 5762 5762 5762 5762 5762 5762 5762 5762 5762 5762
5704 5705 5707 5709 5711 5712 5712 5713 5714 5716 5717 5718 5719 5719 5719 5719 5719 5717 5716 5717 5719 5720 5721 5723 5725 5726 5728 5729 5730 5730 5730 5730 5730 5731 5732 5734 5734 5733 5732 5735 5738 5739 5739 5740 5739 5740 5741 5741 5742 5742 5743 5743 5743 5742 5742 5742 5742 5743 5744 5745 5747 5747 5748 5749 5750 5750 5752 5753 5753 5753 5754 5754 5754 5755 5756 5757 5757 5757 5757 5757 5757 5758 5758 5759 5759 5759 5760 5760 5760 5760 5761 5761 5761 5760 5760 5760 5760
5702 5703 5705 5706 5707 5708 5709 5710 5711 5713 5715 5716 5717 5717 5715 5715 5716 5715 5714 5715 5716 5717 5718 5721 5722 5723 5725 5727 5728 5729 5729 5729 5729 5729 5730 5731 5731 5730 5729 5731 5734 5735 5736 5737 5737 5737 5737 5738 5739 5739 5740 5740 5739 5739 5738 5738 5739 5740 5741 5743 5744 5745 5746 5746 5747 5748 5749 5750 5751 5751 5751 5752 5752 5753 5754 5754 5755 5755 5755 5755 5755 5756 5756 5757 5757 5757 5758 5758 5758 5758 5759 5759 5759 5759 5759 5759 5759
5700 5701 5702 5704 5705 5706 5707 5707 5708 5710 5712 5713 5714 5714 5712 5712 5713 5712 5712 5713 5713 5713 5715 5717 5718 5720 5722 5723 5725 5726 5726 5727 5728 5728 5728 5728 5728 5728 5728 5728 5729 5731 5732 5733 5734 5734 5734 5735 5736 5737 5737 5737 5736 5735 5734 5735 5736 5737 5739 5741 5742 5742 5743 5744 5744 5746 5747 5748 5748 5749 5750 5750 5750 5751 5751 5752 5752 5752 5753 5753 5753 5753 5753 5754 5754 5755 5755 5755 5756 5756 5756 5757 5757 5757 5757 5757 5757